Hourly Weather Roundup
Issued by NWS Central Illinois

Home | Current Version | Previous Version | Text Only | Print | Product List | Glossary On
Versions: 1 2 3 4 5 6 7 8 9 10 11 12 13 14 15 16 17 18 19 20 21 22 23 24 25 26 27 28 29 30 31 32 33 34 35 36 37 38 39 40 41 42 43 44 45 46 47 48 49 50
000
NZUS43 KILX 161110
HWRILX

Area Weather Roundup
National Weather Service Lincoln IL
600 AM CDT WED AUG 16 2017

NOTE:  "FAIR" indicates few or no clouds below 12,000 feet, with
       no sigificant weather and/or obstructions to visibility.


CITY           SKY/WX    TMP DP  RH WIND       PRES   REMARKS
Bloomington    CLEAR     65  64  97 E6        29.99R
Champaign      CLEAR     66  64  93 E3        29.98S FOG
Danville       CLEAR     64  64 100 CALM      29.97R FOG
Decatur        CLEAR     66  65  96 CALM      29.97R
Effingham      CLOUDY    66  66 100 CALM      29.99R FOG
Flora          CLOUDY    69  67  95 CALM      29.98R FOG
Galesburg      CLEAR     67  66  97 E6        29.95S
Jacksonville   CLEAR     66  65  97 E3        29.93R FOG
Lacon          CLEAR     64  64 100 NE3       29.97R FOG
Lawrenceville  CLOUDY    70  68  93 E3        29.99R FOG
Litchfield     PTCLDY    69  69  99 SE5       29.95S FOG
$$


CITY           SKY/WX    TMP DP  RH WIND       PRES   REMARKS
Lincoln        CLEAR     66  66 100 CALM      29.96S
Macomb         PTCLDY    66  66  99 CALM      29.96R FOG
Mattoon        CLEAR     69  69 100 S3        29.97R FOG
Mt Carmel AP     N/A     66  65  96 CALM      29.99R FOG
Olney-Noble AP   N/A     66  64  93 CALM      29.99R FOG
Paris AP       FOG       64  64 100 E3        29.99S VSB<1/4
Peoria         CLEAR     69  68  96 NE7       29.96R
Pontiac        CLEAR     65  64  98 CALM      29.99R FOG
Rantoul        CLEAR     68  67  97 E3        29.99R
Robinson       CLOUDY    63  63 100 CALM      30.00R FOG
Springfield    CLEAR     71  70  96 E5        29.95R
Taylorville    CLEAR     68  68 100 SE3       29.96R FOG
$$

...REGIONAL REPORTS...


CITY           SKY/WX    TMP DP  RH WIND       PRES   REMARKS
Chicago O`Hare PTCLDY    67  62  84 N5        30.01R
Kankakee       CLEAR     64  63  94 CALM      30.00R
Moline         CLOUDY    68  64  87 E8        29.94S FOG
Mount Sterling CLEAR     68  67  98 SE3       29.92R FOG
Mount Vernon   CLOUDY    69  69 100 CALM      29.97R FOG
Pittsfield     PTCLDY    69  69  99 SE3       29.93R
Quincy         CLEAR     71  68  90 E7        29.90R
Rockford       MOCLDY    66  61  84 E7        30.01S
$$


CITY           SKY/WX    TMP DP  RH WIND       PRES   REMARKS
Burlington     CLEAR     70  69  97 E6        29.92R
Cedar Rapids   CLEAR     65  32  29 E12       29.91F FOG
Des Moines     CLOUDY    70  69  97 SE7       29.85S
Kirksville     CLEAR     69  67  93 E3        29.89S
Ottumwa        CLOUDY    68  68 100 E7        29.88F
St Louis       CLOUDY    76  73  91 E8        29.93R
$$


CITY           SKY/WX    TMP DP  RH WIND       PRES   REMARKS
Terre Haute    FOG       65  63  93 CALM      29.99R VSB 3/4
Evansville     CLOUDY    70  69  97 CALM      29.99S FOG
Indianapolis   PTCLDY    70  66  87 CALM      30.00R
Lafayette      CLEAR     66  66 100 CALM      29.99R
Madison        CLOUDY    62  60  93 E3        30.02R
Milwaukee      PTCLDY    63  59  87 NW5       30.03R
$$






USA.gov is the U.S. government's official web portal to all federal, state and local government web resources and services.